Location: Pallagorio
(39.3000°N, 16.9000°E)
Time: 17:21:37
(UTC+00:00)

Cosmos 1833 Rocket - Pass Details

Date: 24 January 2021
Orbit: 833 x 839 km, 71.0° (Epoch: 02 March)

Event Time Altitude Azimuth Distance (km) Brightness Sun altitude
Rises 18:27:26 0° 336° (NNW) 3,388 6.1 -27.7°
Reaches altitude 10° 18:29:53 10° 336° (NNW) 2,451 5.3 -28.2°
Enters shadow 18:34:58 73° 317° (NW) 875 2.7 -29.2°
